Tracking 25648 objects as of 16-May-2022
HD Live streaming from Space Station
objects crossing your sky now

COSMOS 2251 DEB

Track COSMOS 2251 DEB now!
10-day predictions


NORAD ID: 35291
Int'l Code: 1993-036AJV
Perigee: 514.9 km
Apogee: 634.1 km
Inclination: 74.0 °
Period: 96.0 minutes
Semi major axis: 6945 km
RCS: 0.0106 m2 (small)
Launch date: June 16, 1993
Source: Commonwealth of Independent States (former USSR) (CIS)
Launch site: PLESETSK MISSILE AND SPACE COMPLEX (PKMTR)

Note: This is SATELLITE DEBRIS
aabbcc
Your satellite tracking list
Your tracking list is empty




NASA's NSSDC Master Catalog

Two Line Element Set (TLE):
1 35291U 93036AJV 22135.73874613  .00012334  00000-0  92267-3 0  9995
2 35291  74.0376 141.0771 0085827 187.8973 172.0871 14.99849247708292
Source of the keplerian elements: AFSPC